When you browse on this site, cookies collect data to enhance your experience and personalize the content and advertising you see.
Visit our Privacy Policy to learn more. By continuing to use the site, you agree to this use of cookies and data.
  • en France
  • Liste des pays
  • À 7 jours
  • Température de l'eau
  • Carte météo
  • Widgets météo
  • user-avatar
    Se connecter

    Météo par heure à Letchworth

    Ce jour, 18 Août, Dimanche

    Heure Température Précipitation Vent Pression Humidité
    00:00 +15°C° 0 mm 2 m/s 744 mmHg 85%
    01:00 +14°C° 0.1 mm 3 m/s 744 mmHg 85%
    02:00 +14°C° 0.1 mm 3 m/s 744 mmHg 85%
    03:00 +14°C° 0.1 mm 3 m/s 744 mmHg 85%
    04:00 +14°C° 0 mm 3 m/s 743 mmHg 86%
    05:00 +14°C° 0 mm 3 m/s 743 mmHg 86%
    06:00 +14°C° 0 mm 3 m/s 743 mmHg 87%
    07:00 +14°C° 0.3 mm 3 m/s 743 mmHg 85%
    08:00 +15°C° 0.3 mm 4 m/s 743 mmHg 83%
    09:00 +15°C° 0.3 mm 4 m/s 744 mmHg 81%
    10:00 +16°C° 0.7 mm 5 m/s 744 mmHg 75%
    11:00 +17°C° 0.7 mm 6 m/s 744 mmHg 68%
    12:00 +20°C° 0.7 mm 7 m/s 744 mmHg 62%
    13:00 +20°C° 0 mm 7 m/s 744 mmHg 60%
    14:00 +20°C° 0 mm 8 m/s 745 mmHg 59%
    15:00 +20°C° 0 mm 8 m/s 745 mmHg 57%
    16:00 +20°C° 0 mm 7 m/s 745 mmHg 61%
    17:00 +18°C° 0 mm 7 m/s 745 mmHg 64%
    18:00 +17°C° 0 mm 6 m/s 746 mmHg 67%
    19:00 +16°C° 0 mm 6 m/s 746 mmHg 70%
    20:00 +15°C° 0 mm 5 m/s 746 mmHg 72%
    21:00 +14°C° 0 mm 5 m/s 747 mmHg 75%
    22:00 +13°C° 0 mm 5 m/s 747 mmHg 76%
    23:00 +13°C° 0 mm 5 m/s 747 mmHg 78%

    Demain, 19 Août, Lundi

    Heure Température Précipitation Vent Pression Humidité
    00:00 +13°C° 0 mm 5 m/s 748 mmHg 80%
    01:00 +11°C° 0 mm 6 m/s 748 mmHg 82%
    02:00 +11°C° 0 mm 6 m/s 748 mmHg 83%
    03:00 +11°C° 0 mm 6 m/s 748 mmHg 85%
    04:00 +11°C° 0 mm 6 m/s 748 mmHg 85%
    05:00 +11°C° 0 mm 6 m/s 749 mmHg 86%
    06:00 +11°C° 0 mm 6 m/s 749 mmHg 87%
    07:00 +14°C° 0 mm 5 m/s 750 mmHg 82%
    08:00 +15°C° 0 mm 5 m/s 750 mmHg 77%
    09:00 +16°C° 0 mm 5 m/s 751 mmHg 72%
    10:00 +17°C° 0 mm 5 m/s 751 mmHg 67%
    11:00 +19°C° 0 mm 5 m/s 751 mmHg 63%
    12:00 +20°C° 0 mm 5 m/s 751 mmHg 58%
    13:00 +20°C° 0.1 mm 5 m/s 751 mmHg 57%
    14:00 +20°C° 0.1 mm 6 m/s 751 mmHg 56%
    15:00 +21°C° 0.1 mm 6 m/s 752 mmHg 55%
    16:00 +20°C° 0.3 mm 6 m/s 752 mmHg 59%
    17:00 +19°C° 0.3 mm 5 m/s 752 mmHg 62%
    18:00 +17°C° 0.3 mm 5 m/s 752 mmHg 66%
    19:00 +15°C° 0 mm 5 m/s 753 mmHg 70%
    20:00 +14°C° 0 mm 4 m/s 753 mmHg 74%
    21:00 +13°C° 0 mm 4 m/s 754 mmHg 77%
    22:00 +12°C° 0 mm 4 m/s 754 mmHg 80%
    23:00 +12°C° 0 mm 4 m/s 754 mmHg 82%

    Après-demain, 20 Août, Mardi

    Heure Température Précipitation Vent Pression Humidité
    00:00 +11°C° 0 mm 4 m/s 755 mmHg 84%
    01:00 +11°C° 0 mm 3 m/s 755 mmHg 86%
    02:00 +11°C° 0 mm 3 m/s 755 mmHg 88%
    03:00 +10°C° 0 mm 3 m/s 755 mmHg 89%
    04:00 +10°C° 0 mm 3 m/s 755 mmHg 89%
    05:00 +10°C° 0 mm 3 m/s 756 mmHg 89%
    06:00 +10°C° 0 mm 3 m/s 756 mmHg 89%
    07:00 +12°C° 0 mm 3 m/s 756 mmHg 81%
    08:00 +13°C° 0 mm 4 m/s 757 mmHg 74%
    09:00 +15°C° 0 mm 4 m/s 757 mmHg 67%
    10:00 +17°C° 0 mm 4 m/s 758 mmHg 63%
    11:00 +16°C° 0 mm 5 m/s 758 mmHg 59%
    12:00 +17°C° 0 mm 5 m/s 758 mmHg 56%
    13:00 +17°C° 0 mm 5 m/s 758 mmHg 55%
    14:00 +19°C° 0 mm 5 m/s 758 mmHg 54%
    15:00 +19°C° 0 mm 5 m/s 758 mmHg 54%
    16:00 +19°C° 0 mm 4 m/s 759 mmHg 57%
    17:00 +18°C° 0 mm 3 m/s 759 mmHg 60%
    18:00 +18°C° 0 mm 3 m/s 759 mmHg 63%
    19:00 +17°C° 0 mm 3 m/s 760 mmHg 68%
    20:00 +14°C° 0 mm 3 m/s 760 mmHg 74%
    21:00 +13°C° 0 mm 3 m/s 760 mmHg 79%
    22:00 +13°C° 0 mm 3 m/s 760 mmHg 83%
    23:00 +12°C° 0 mm 3 m/s 760 mmHg 86%

    21 Août, Mercredi

    Heure Température Précipitation Vent Pression Humidité
    00:00 +12°C° 0 mm 3 m/s 760 mmHg 90%
    01:00 +13°C° 0 mm 2 m/s 760 mmHg 91%
    02:00 +13°C° 0 mm 2 m/s 760 mmHg 91%
    03:00 +13°C° 0 mm 2 m/s 760 mmHg 92%
    04:00 +13°C° 0 mm 2 m/s 760 mmHg 92%
    05:00 +13°C° 0 mm 2 m/s 760 mmHg 91%
    06:00 +13°C° 0 mm 2 m/s 760 mmHg 91%
    07:00 +14°C° 0 mm 3 m/s 760 mmHg 84%
    08:00 +16°C° 0 mm 3 m/s 761 mmHg 78%
    09:00 +17°C° 0 mm 3 m/s 761 mmHg 72%
    10:00 +19°C° 0 mm 3 m/s 761 mmHg 66%
    11:00 +20°C° 0 mm 4 m/s 760 mmHg 60%
    12:00 +21°C° 0 mm 4 m/s 760 mmHg 54%
    13:00 +21°C° 0 mm 4 m/s 760 mmHg 54%
    14:00 +21°C° 0 mm 4 m/s 760 mmHg 54%
    15:00 +22°C° 0 mm 4 m/s 759 mmHg 54%
    16:00 +21°C° 0.1 mm 4 m/s 759 mmHg 58%
    17:00 +20°C° 0.1 mm 4 m/s 759 mmHg 61%
    18:00 +19°C° 0.1 mm 4 m/s 759 mmHg 65%
    19:00 +18°C° 0 mm 3 m/s 759 mmHg 68%
    20:00 +17°C° 0 mm 3 m/s 759 mmHg 71%
    21:00 +14°C° 0 mm 3 m/s 759 mmHg 74%
    22:00 +14°C° 0 mm 3 m/s 759 mmHg 77%
    23:00 +13°C° 0 mm 3 m/s 759 mmHg 81%

    22 Août, Jeudi

    Heure Température Précipitation Vent Pression Humidité
    00:00 +13°C° 0 mm 3 m/s 759 mmHg 84%
    01:00 +12°C° 0 mm 3 m/s 759 mmHg 85%
    02:00 +12°C° 0 mm 3 m/s 759 mmHg 87%
    03:00 +12°C° 0 mm 3 m/s 759 mmHg 88%
    04:00 +12°C° 0 mm 3 m/s 759 mmHg 88%
    05:00 +12°C° 0 mm 3 m/s 759 mmHg 87%
    06:00 +12°C° 0 mm 3 m/s 759 mmHg 87%
    07:00 +14°C° 0 mm 3 m/s 760 mmHg 81%
    08:00 +16°C° 0 mm 3 m/s 760 mmHg 75%
    09:00 +17°C° 0 mm 4 m/s 760 mmHg 70%
    10:00 +19°C° 0 mm 4 m/s 760 mmHg 66%
    11:00 +20°C° 0 mm 4 m/s 760 mmHg 62%
    12:00 +21°C° 0 mm 4 m/s 759 mmHg 58%
    13:00 +22°C° 0 mm 4 m/s 759 mmHg 57%
    14:00 +22°C° 0 mm 4 m/s 759 mmHg 57%
    15:00 +22°C° 0 mm 4 m/s 759 mmHg 57%
    16:00 +22°C° 0 mm 4 m/s 759 mmHg 60%
    17:00 +21°C° 0 mm 3 m/s 759 mmHg 64%
    18:00 +21°C° 0 mm 3 m/s 759 mmHg 68%
    19:00 +19°C° 0 mm 3 m/s 759 mmHg 73%
    20:00 +18°C° 0 mm 2 m/s 759 mmHg 77%
    21:00 +17°C° 0 mm 2 m/s 760 mmHg 82%
    22:00 +16°C° 0 mm 2 m/s 760 mmHg 84%
    23:00 +16°C° 0 mm 2 m/s 759 mmHg 86%

    23 Août, Vendredi

    Heure Température Précipitation Vent Pression Humidité
    00:00 +15°C° 0 mm 2 m/s 759 mmHg 88%
    01:00 +15°C° 0 mm 2 m/s 759 mmHg 89%
    02:00 +14°C° 0 mm 1 m/s 759 mmHg 90%
    03:00 +14°C° 0 mm 1 m/s 758 mmHg 91%
    04:00 +14°C° 0 mm 1 m/s 758 mmHg 90%
    05:00 +14°C° 0 mm 1 m/s 758 mmHg 89%
    06:00 +14°C° 0 mm 1 m/s 758 mmHg 88%
    07:00 +16°C° 0 mm 1 m/s 759 mmHg 79%
    08:00 +18°C° 0 mm 1 m/s 759 mmHg 71%
    09:00 +19°C° 0 mm 2 m/s 759 mmHg 63%
    10:00 +20°C° 0 mm 2 m/s 759 mmHg 55%
    11:00 +21°C° 0 mm 2 m/s 759 mmHg 48%
    12:00 +23°C° 0 mm 2 m/s 758 mmHg 40%
    13:00 +24°C° 0 mm 2 m/s 758 mmHg 38%
    14:00 +24°C° 0 mm 2 m/s 758 mmHg 37%
    15:00 +25°C° 0 mm 2 m/s 757 mmHg 35%
    16:00 +24°C° 0 mm 2 m/s 757 mmHg 41%
    17:00 +23°C° 0 mm 1 m/s 757 mmHg 46%
    18:00 +22°C° 0 mm 1 m/s 757 mmHg 52%
    19:00 +21°C° 0 mm 1 m/s 757 mmHg 54%
    20:00 +19°C° 0 mm 1 m/s 757 mmHg 57%
    21:00 +18°C° 0 mm 1 m/s 757 mmHg 60%
    22:00 +18°C° 0 mm 1 m/s 757 mmHg 61%
    23:00 +16°C° 0 mm 1 m/s 756 mmHg 62%
    Voir plus